Time,TemperatureF,DewpointF,PressureIn,WindDirection,WindDirectionDegrees,WindSpeedMPH,WindSpeedGustMPH,Humidity,HourlyPrecipIn,Conditions,Clouds,dailyrainin,SoftwareType,DateUTC
2013-01-04 00:01:00,31.0,21.3,29.74,WSW,238,2.0,2.0,67,0.00,,,0.00,Wunderground v.1.15,2013-01-04 05:01:00,
2013-01-04 00:02:00,31.0,21.3,29.74,WSW,246,2.0,3.0,67,0.00,,,0.00,Wunderground v.1.15,2013-01-04 05:02:00,
2013-01-04 00:03:00,31.0,21.0,29.74,WSW,254,2.0,3.0,66,0.00,,,0.00,Wunderground v.1.15,2013-01-04 05:03:00,
2013-01-04 00:06:00,30.9,21.2,29.74,WSW,246,2.0,3.0,67,0.00,,,0.00,Wunderground v.1.15,2013-01-04 05:06:00,
2013-01-04 00:12:00,30.8,21.1,29.74,WSW,245,2.0,4.0,67,0.00,,,0.00,Wunderground v.1.15,2013-01-04 05:12:00,
2013-01-04 00:18:00,30.7,21.0,29.74,WSW,256,1.0,4.0,67,0.00,,,0.00,Wunderground v.1.15,2013-01-04 05:18:00,
2013-01-04 00:24:00,30.7,21.0,29.74,WSW,257,1.0,6.0,67,0.00,,,0.00,Wunderground v.1.15,2013-01-04 05:24:00,
2013-01-04 00:29:00,30.8,21.1,29.74,WSW,246,2.0,6.0,67,0.00,,,0.00,Wunderground v.1.15,2013-01-04 05:29:00,
2013-01-04 00:34:00,30.5,20.8,29.74,WSW,242,2.0,4.0,67,0.00,,,0.00,Wunderground v.1.15,2013-01-04 05:34:00,
2013-01-04 00:40:00,30.2,20.6,29.74,WSW,241,1.0,1.0,67,0.00,,,0.00,Wunderground v.1.15,2013-01-04 05:40:00,
2013-01-04 00:46:00,29.9,20.6,29.74,West,262,1.0,1.0,68,0.00,,,0.00,Wunderground v.1.15,2013-01-04 05:46:00,
2013-01-04 00:51:00,29.8,20.5,29.74,WSW,238,1.0,1.0,68,0.00,,,0.00,Wunderground v.1.15,2013-01-04 05:51:00,
2013-01-04 00:57:00,29.6,20.3,29.74,WSW,238,1.0,1.0,68,0.00,,,0.00,Wunderground v.1.15,2013-01-04 05:57:00,
2013-01-04 01:03:00,29.7,20.4,29.74,WSW,242,1.0,5.0,68,0.00,,,0.00,Wunderground v.1.15,2013-01-04 06:03:00,
2013-01-04 01:09:00,29.8,20.5,29.74,WSW,242,1.0,5.0,68,0.00,,,0.00,Wunderground v.1.15,2013-01-04 06:09:00,
2013-01-04 01:15:00,29.8,20.5,29.74,West,265,1.0,5.0,68,0.00,,,0.00,Wunderground v.1.15,2013-01-04 06:15:00,
2013-01-04 01:20:00,30.0,20.7,29.74,WSW,245,1.0,1.0,68,0.00,,,0.00,Wunderground v.1.15,2013-01-04 06:20:00,
2013-01-04 01:26:00,30.0,20.7,29.74,WSW,244,1.0,5.0,68,0.00,,,0.00,Wunderground v.1.15,2013-01-04 06:26:00,
2013-01-04 01:31:00,29.8,20.5,29.74,WSW,241,1.0,4.0,68,0.00,,,0.00,Wunderground v.1.15,2013-01-04 06:31:00,
2013-01-04 01:36:00,29.8,20.5,29.74,WSW,240,1.0,4.0,68,0.00,,,0.00,Wunderground v.1.15,2013-01-04 06:36:00,
2013-01-04 01:42:00,29.6,20.3,29.74,West,269,0.0,4.0,68,0.00,,,0.00,Wunderground v.1.15,2013-01-04 06:42:00,
2013-01-04 01:48:00,29.3,20.4,29.74,West,269,0.0,4.0,69,0.00,,,0.00,Wunderground v.1.15,2013-01-04 06:48:00,
2013-01-04 01:54:00,29.2,20.3,29.74,West,269,0.0,2.0,69,0.00,,,0.00,Wunderground v.1.15,2013-01-04 06:54:00,
2013-01-04 02:00:00,29.2,20.3,29.74,West,269,0.0,5.0,69,0.00,,,0.00,Wunderground v.1.15,2013-01-04 07:00:00,
2013-01-04 02:06:00,29.3,20.4,29.74,WSW,250,1.0,5.0,69,0.00,,,0.00,Wunderground v.1.15,2013-01-04 07:06:00,
2013-01-04 02:12:00,29.4,20.5,29.74,WSW,250,0.0,1.0,69,0.00,,,0.00,Wunderground v.1.15,2013-01-04 07:12:00,
2013-01-04 02:17:00,29.6,20.7,29.74,WSW,242,1.0,5.0,69,0.00,,,0.00,Wunderground v.1.15,2013-01-04 07:17:00,
2013-01-04 02:22:00,29.6,21.0,29.74,WSW,242,1.0,1.0,70,0.00,,,0.00,Wunderground v.1.15,2013-01-04 07:22:00,
2013-01-04 02:28:00,29.5,20.9,29.74,WSW,241,0.0,1.0,70,0.00,,,0.00,Wunderground v.1.15,2013-01-04 07:28:00,
2013-01-04 02:33:00,29.3,20.7,29.74,WSW,241,0.0,0.0,70,0.00,,,0.00,Wunderground v.1.15,2013-01-04 07:33:00,
2013-01-04 02:39:00,29.2,21.0,29.74,WSW,241,0.0,0.0,71,0.00,,,0.00,Wunderground v.1.15,2013-01-04 07:39:00,
2013-01-04 02:44:00,29.2,21.0,29.74,WSW,241,0.0,0.0,71,0.00,,,0.00,Wunderground v.1.15,2013-01-04 07:44:00,
2013-01-04 02:49:00,29.4,21.2,29.74,WSW,243,0.0,4.0,71,0.00,,,0.00,Wunderground v.1.15,2013-01-04 07:49:00,
2013-01-04 02:55:00,29.9,21.3,29.74,SW,236,1.0,4.0,70,0.00,,,0.00,Wunderground v.1.15,2013-01-04 07:55:00,
2013-01-04 03:00:00,30.3,21.7,29.74,WSW,253,2.0,2.0,70,0.00,,,0.00,Wunderground v.1.15,2013-01-04 08:00:00,
2013-01-04 03:06:00,30.6,21.6,29.74,WSW,250,1.0,4.0,69,0.00,,,0.00,Wunderground v.1.15,2013-01-04 08:06:00,
2013-01-04 03:12:00,30.8,21.8,29.74,WSW,248,1.0,2.0,69,0.00,,,0.00,Wunderground v.1.15,2013-01-04 08:12:00,
2013-01-04 03:17:00,31.0,22.0,29.74,WSW,253,1.0,5.0,69,0.00,,,0.00,Wunderground v.1.15,2013-01-04 08:17:00,
2013-01-04 03:22:00,31.1,22.1,29.74,WSW,246,2.0,2.0,69,0.00,,,0.00,Wunderground v.1.15,2013-01-04 08:22:00,
2013-01-04 03:28:00,31.2,21.9,29.74,WSW,246,1.0,2.0,68,0.00,,,0.00,Wunderground v.1.15,2013-01-04 08:28:00,
2013-01-04 03:33:00,31.1,21.8,29.74,WSW,246,0.0,2.0,68,0.00,,,0.00,Wunderground v.1.15,2013-01-04 08:33:00,
2013-01-04 03:39:00,31.1,21.8,29.74,WSW,245,0.0,2.0,68,0.00,,,0.00,Wunderground v.1.15,2013-01-04 08:39:00,
2013-01-04 03:44:00,31.2,21.9,29.74,WSW,243,1.0,4.0,68,0.00,,,0.00,Wunderground v.1.15,2013-01-04 08:44:00,
2013-01-04 03:50:00,31.3,22.0,29.74,WSW,244,1.0,1.0,68,0.00,,,0.00,Wunderground v.1.15,2013-01-04 08:50:00,
2013-01-04 03:55:00,31.4,22.1,29.74,WSW,248,1.0,4.0,68,0.00,,,0.00,Wunderground v.1.15,2013-01-04 08:55:00,
2013-01-04 04:00:00,31.4,22.1,29.74,WSW,248,1.0,2.0,68,0.00,,,0.00,Wunderground v.1.15,2013-01-04 09:00:00,
2013-01-04 04:06:00,31.5,22.1,29.74,WSW,250,1.0,4.0,68,0.00,,,0.00,Wunderground v.1.15,2013-01-04 09:06:00,
2013-01-04 04:11:00,31.6,22.2,29.74,WSW,237,1.0,2.0,68,0.00,,,0.00,Wunderground v.1.15,2013-01-04 09:11:00,
2013-01-04 04:17:00,31.7,22.3,29.74,SW,227,2.0,6.0,68,0.00,,,0.00,Wunderground v.1.15,2013-01-04 09:17:00,
2013-01-04 04:22:00,31.7,22.3,29.74,WSW,245,1.0,2.0,68,0.00,,,0.00,Wunderground v.1.15,2013-01-04 09:22:00,
2013-01-04 04:27:00,31.7,22.3,29.74,WSW,254,2.0,4.0,68,0.00,,,0.00,Wunderground v.1.15,2013-01-04 09:27:00,
2013-01-04 04:33:00,31.7,22.3,29.74,WSW,249,2.0,5.0,68,0.00,,,0.00,Wunderground v.1.15,2013-01-04 09:33:00,
2013-01-04 04:39:00,31.6,22.2,29.74,WSW,256,1.0,6.0,68,0.00,,,0.00,Wunderground v.1.15,2013-01-04 09:39:00,
2013-01-04 04:45:00,31.7,22.3,29.74,West,265,1.0,2.0,68,0.00,,,0.00,Wunderground v.1.15,2013-01-04 09:45:00,
2013-01-04 04:50:00,31.7,22.3,29.74,West,260,1.0,4.0,68,0.00,,,0.00,Wunderground v.1.15,2013-01-04 09:50:00,
2013-01-04 04:56:00,31.7,22.3,29.74,WSW,257,1.0,5.0,68,0.00,,,0.00,Wunderground v.1.15,2013-01-04 09:56:00,
2013-01-04 05:01:00,31.7,22.3,29.74,West,265,1.0,1.0,68,0.00,,,0.00,Wunderground v.1.15,2013-01-04 10:01:00,
2013-01-04 05:07:00,31.7,22.3,29.74,WNW,288,1.0,3.0,68,0.00,,,0.00,Wunderground v.1.15,2013-01-04 10:07:00,
2013-01-04 05:13:00,31.7,22.3,29.74,WSW,243,1.0,1.0,68,0.00,,,0.00,Wunderground v.1.15,2013-01-04 10:13:00,
2013-01-04 05:18:00,31.6,22.2,29.74,WSW,243,1.0,1.0,68,0.00,,,0.00,Wunderground v.1.15,2013-01-04 10:18:00,
2013-01-04 05:24:00,31.4,22.4,29.74,WSW,243,0.0,0.0,69,0.00,,,0.00,Wunderground v.1.15,2013-01-04 10:24:00,
2013-01-04 05:29:00,31.1,22.5,29.74,WSW,242,0.0,0.0,70,0.00,,,0.00,Wunderground v.1.15,2013-01-04 10:29:00,
2013-01-04 05:35:00,31.0,22.4,29.74,WSW,245,0.0,1.0,70,0.00,,,0.00,Wunderground v.1.15,2013-01-04 10:35:00,
2013-01-04 05:41:00,31.0,22.4,29.74,WSW,245,0.0,2.0,70,0.00,,,0.00,Wunderground v.1.15,2013-01-04 10:41:00,
2013-01-04 05:47:00,31.4,22.1,29.74,WSW,251,2.0,6.0,68,0.00,,,0.00,Wunderground v.1.15,2013-01-04 10:47:00,
2013-01-04 05:52:00,31.7,22.0,29.74,WSW,250,3.0,14.0,67,0.00,,,0.00,Wunderground v.1.15,2013-01-04 10:52:00,
2013-01-04 05:58:00,32.1,22.4,29.74,West,273,4.0,14.0,67,0.00,,,0.00,Wunderground v.1.15,2013-01-04 10:58:00,
2013-01-04 06:03:00,32.0,21.9,29.74,West,277,4.0,7.0,66,0.00,,,0.00,Wunderground v.1.15,2013-01-04 11:03:00,
2013-01-04 06:09:00,31.7,22.0,29.74,SW,232,2.0,7.0,67,0.00,,,0.00,Wunderground v.1.15,2013-01-04 11:09:00,
2013-01-04 06:14:00,31.4,22.1,29.74,West,267,1.0,2.0,68,0.00,,,0.00,Wunderground v.1.15,2013-01-04 11:14:00,
2013-01-04 06:19:00,31.2,21.9,29.74,WSW,254,1.0,7.0,68,0.00,,,0.00,Wunderground v.1.15,2013-01-04 11:19:00,
2013-01-04 06:25:00,31.0,21.7,29.74,WSW,252,1.0,2.0,68,0.00,,,0.00,Wunderground v.1.15,2013-01-04 11:25:00,
2013-01-04 06:30:00,30.8,21.8,29.74,WSW,249,1.0,1.0,69,0.00,,,0.00,Wunderground v.1.15,2013-01-04 11:30:00,
2013-01-04 06:36:00,30.6,21.6,29.74,WSW,238,1.0,4.0,69,0.00,,,0.00,Wunderground v.1.15,2013-01-04 11:36:00,
2013-01-04 06:41:00,30.4,21.8,29.74,WSW,238,1.0,1.0,70,0.00,,,0.00,Wunderground v.1.15,2013-01-04 11:41:00,
2013-01-04 06:47:00,30.1,21.5,29.74,WSW,238,0.0,1.0,70,0.00,,,0.00,Wunderground v.1.15,2013-01-04 11:47:00,
2013-01-04 06:52:00,29.9,21.3,29.74,WSW,238,0.0,0.0,70,0.00,,,0.00,Wunderground v.1.15,2013-01-04 11:52:00,
2013-01-04 06:57:00,29.7,21.4,29.74,WSW,238,0.0,0.0,71,0.00,,,0.00,Wunderground v.1.15,2013-01-04 11:57:00,
2013-01-04 07:03:00,29.8,21.5,29.74,WSW,240,0.0,1.0,71,0.00,,,0.00,Wunderground v.1.15,2013-01-04 12:03:00,
2013-01-04 07:09:00,30.2,21.9,29.74,WSW,240,0.0,1.0,71,0.00,,,0.00,Wunderground v.1.15,2013-01-04 12:09:00,
2013-01-04 07:14:00,30.5,22.2,29.74,WSW,240,0.0,1.0,71,0.00,,,0.00,Wunderground v.1.15,2013-01-04 12:14:00,
2013-01-04 07:19:00,30.9,22.6,29.74,WSW,237,1.0,7.0,71,0.00,,,0.00,Wunderground v.1.15,2013-01-04 12:19:00,
2013-01-04 07:25:00,31.2,22.9,29.74,SW,225,2.0,7.0,71,0.00,,,0.00,Wunderground v.1.15,2013-01-04 12:25:00,
2013-01-04 07:31:00,31.4,22.7,29.74,SW,225,1.0,3.0,70,0.00,,,0.00,Wunderground v.1.15,2013-01-04 12:31:00,
2013-01-04 07:37:00,31.5,22.8,29.74,SW,225,1.0,3.0,70,0.00,,,0.00,Wunderground v.1.15,2013-01-04 12:37:00,
2013-01-04 07:42:00,31.6,22.9,29.74,West,267,1.0,2.0,70,0.00,,,0.00,Wunderground v.1.15,2013-01-04 12:42:00,
2013-01-04 07:48:00,31.6,22.9,29.74,WSW,256,1.0,4.0,70,0.00,,,0.00,Wunderground v.1.15,2013-01-04 12:48:00,
2013-01-04 07:54:00,31.7,23.0,29.74,WSW,255,1.0,7.0,70,0.00,,,0.00,Wunderground v.1.15,2013-01-04 12:54:00,
2013-01-04 07:59:00,31.8,23.1,29.74,WSW,245,2.0,7.0,70,0.00,,,0.00,Wunderground v.1.15,2013-01-04 12:59:00,
2013-01-04 08:04:00,31.9,23.2,29.74,WNW,284,2.0,4.0,70,0.00,,,0.00,Wunderground v.1.15,2013-01-04 13:04:00,
2013-01-04 08:10:00,31.9,22.9,29.74,West,270,1.0,1.0,69,0.00,,,0.00,Wunderground v.1.15,2013-01-04 13:10:00,
2013-01-04 08:15:00,31.9,22.9,29.74,WSW,252,1.0,1.0,69,0.00,,,0.00,Wunderground v.1.15,2013-01-04 13:15:00,
2013-01-04 08:20:00,32.0,23.0,29.74,SW,235,1.0,1.0,69,0.00,,,0.00,Wunderground v.1.15,2013-01-04 13:20:00,
2013-01-04 08:26:00,32.1,23.1,29.74,WNW,289,2.0,7.0,69,0.00,,,0.00,Wunderground v.1.15,2013-01-04 13:26:00,
2013-01-04 08:31:00,32.1,23.1,29.74,West,262,2.0,4.0,69,0.00,,,0.00,Wunderground v.1.15,2013-01-04 13:31:00,
2013-01-04 08:37:00,32.2,23.2,29.74,West,270,2.0,5.0,69,0.00,,,0.00,Wunderground v.1.15,2013-01-04 13:37:00,
2013-01-04 08:43:00,32.2,22.8,29.74,WSW,241,2.0,7.0,68,0.00,,,0.00,Wunderground v.1.15,2013-01-04 13:43:00,
2013-01-04 08:48:00,32.3,22.9,29.74,NW,315,3.0,7.0,68,0.00,,,0.00,Wunderground v.1.15,2013-01-04 13:48:00,
2013-01-04 08:54:00,32.4,23.0,29.74,West,277,4.0,6.0,68,0.00,,,0.00,Wunderground v.1.15,2013-01-04 13:54:00,
2013-01-04 08:59:00,32.4,23.0,29.74,WSW,252,4.0,8.0,68,0.00,,,0.00,Wunderground v.1.15,2013-01-04 13:59:00,
2013-01-04 09:05:00,32.5,23.1,29.74,WNW,286,5.0,9.0,68,0.00,,,0.00,Wunderground v.1.15,2013-01-04 14:05:00,
2013-01-04 09:11:00,32.5,23.5,29.74,West,276,6.0,6.0,69,0.00,,,0.00,Wunderground v.1.15,2013-01-04 14:11:00,
2013-01-04 09:17:00,32.5,23.5,29.74,WSW,250,4.0,8.0,69,0.00,,,0.00,Wunderground v.1.15,2013-01-04 14:17:00,
2013-01-04 09:22:00,32.6,23.6,29.74,West,275,3.0,5.0,69,0.00,,,0.00,Wunderground v.1.15,2013-01-04 14:22:00,
2013-01-04 09:28:00,32.6,23.2,29.74,WNW,286,5.0,8.0,68,0.00,,,0.00,Wunderground v.1.15,2013-01-04 14:28:00,
2013-01-04 09:33:00,32.6,23.2,29.74,West,262,6.0,7.0,68,0.00,,,0.00,Wunderground v.1.15,2013-01-04 14:33:00,
2013-01-04 09:39:00,32.7,23.3,29.74,WSW,241,7.0,9.0,68,0.00,,,0.00,Wunderground v.1.15,2013-01-04 14:39:00,
2013-01-04 09:45:00,32.7,23.3,29.74,WSW,241,7.0,13.0,68,0.00,,,0.00,Wunderground v.1.15,2013-01-04 14:45:00,
2013-01-04 09:50:00,32.7,23.3,29.74,WSW,252,7.0,7.0,68,0.00,,,0.00,Wunderground v.1.15,2013-01-04 14:50:00,
2013-01-04 09:55:00,32.7,23.6,29.74,West,269,6.0,7.0,69,0.00,,,0.00,Wunderground v.1.15,2013-01-04 14:55:00,
2013-01-04 10:00:00,32.9,23.8,29.74,WSW,247,5.0,11.0,69,0.00,,,0.00,Wunderground v.1.15,2013-01-04 15:00:00,
2013-01-04 10:06:00,32.9,23.8,29.74,WSW,248,5.0,11.0,69,0.00,,,0.00,Wunderground v.1.15,2013-01-04 15:06:00,
2013-01-04 10:12:00,33.1,24.0,29.74,WNW,286,5.0,8.0,69,0.00,,,0.00,Wunderground v.1.15,2013-01-04 15:12:00,
2013-01-04 10:18:00,33.1,23.7,29.74,WSW,238,4.0,8.0,68,0.00,,,0.00,Wunderground v.1.15,2013-01-04 15:18:00,
2013-01-04 10:24:00,33.0,23.2,29.74,WNW,295,6.0,10.0,67,0.00,,,0.00,Wunderground v.1.15,2013-01-04 15:24:00,
2013-01-04 10:30:00,33.0,23.2,29.74,West,265,7.0,7.0,67,0.00,,,0.00,Wunderground v.1.15,2013-01-04 15:30:00,
2013-01-04 10:35:00,33.1,23.3,29.74,West,272,5.0,7.0,67,0.00,,,0.00,Wunderground v.1.15,2013-01-04 15:35:00,
2013-01-04 10:41:00,33.2,23.4,29.74,SW,225,5.0,5.0,67,0.00,,,0.00,Wunderground v.1.15,2013-01-04 15:41:00,
2013-01-04 10:47:00,33.2,23.1,29.74,West,265,6.0,8.0,66,0.00,,,0.00,Wunderground v.1.15,2013-01-04 15:47:00,
2013-01-04 10:53:00,33.3,22.8,29.74,SW,236,7.0,7.0,65,0.00,,,0.00,Wunderground v.1.15,2013-01-04 15:53:00,
2013-01-04 10:59:00,33.4,22.9,29.74,WSW,238,7.0,13.0,65,0.00,,,0.00,Wunderground v.1.15,2013-01-04 15:59:00,
2013-01-04 11:04:00,33.6,23.1,29.74,WNW,290,6.0,6.0,65,0.00,,,0.00,Wunderground v.1.15,2013-01-04 16:04:00,
2013-01-04 11:10:00,33.6,22.7,29.74,SW,227,6.0,8.0,64,0.00,,,0.00,Wunderground v.1.15,2013-01-04 16:10:00,
2013-01-04 11:16:00,33.7,23.2,29.74,West,259,6.0,12.0,65,0.00,,,0.00,Wunderground v.1.15,2013-01-04 16:16:00,
2013-01-04 11:21:00,33.9,23.0,29.74,WNW,295,5.0,10.0,64,0.00,,,0.00,Wunderground v.1.15,2013-01-04 16:21:00,
2013-01-04 11:27:00,33.7,22.8,29.74,West,268,6.0,10.0,64,0.00,,,0.00,Wunderground v.1.15,2013-01-04 16:27:00,
2013-01-04 11:33:00,33.6,22.7,29.74,SW,234,8.0,11.0,64,0.00,,,0.00,Wunderground v.1.15,2013-01-04 16:33:00,
2013-01-04 11:39:00,33.6,23.1,29.74,SW,221,8.0,11.0,65,0.00,,,0.00,Wunderground v.1.15,2013-01-04 16:39:00,
2013-01-04 11:45:00,33.7,23.2,29.74,SW,232,6.0,8.0,65,0.00,,,0.00,Wunderground v.1.15,2013-01-04 16:45:00,
2013-01-04 11:51:00,33.8,22.9,29.74,WSW,256,7.0,7.0,64,0.00,,,0.00,Wunderground v.1.15,2013-01-04 16:51:00,
2013-01-04 11:56:00,33.8,22.9,29.74,WNW,300,8.0,16.0,64,0.00,,,0.00,Wunderground v.1.15,2013-01-04 16:56:00,
2013-01-04 12:02:00,33.7,23.2,29.74,West,265,8.0,8.0,65,0.00,,,0.00,Wunderground v.1.15,2013-01-04 17:02:00,
2013-01-04 12:08:00,33.7,23.2,29.74,SSW,206,7.0,9.0,65,0.00,,,0.00,Wunderground v.1.15,2013-01-04 17:08:00,
2013-01-04 12:13:00,33.7,23.5,29.74,SW,230,7.0,8.0,66,0.00,,,0.00,Wunderground v.1.15,2013-01-04 17:13:00,
2013-01-04 12:18:00,33.6,23.1,29.74,WSW,254,7.0,10.0,65,0.00,,,0.00,Wunderground v.1.15,2013-01-04 17:18:00,
2013-01-04 12:24:00,33.6,23.1,29.74,West,262,7.0,9.0,65,0.00,,,0.00,Wunderground v.1.15,2013-01-04 17:24:00,
2013-01-04 12:29:00,33.6,23.1,29.74,WSW,245,7.0,9.0,65,0.00,,,0.00,Wunderground v.1.15,2013-01-04 17:29:00,
2013-01-04 12:35:00,33.6,23.1,29.74,WSW,255,7.0,12.0,65,0.00,,,0.00,Wunderground v.1.15,2013-01-04 17:35:00,
2013-01-04 12:40:00,33.5,23.4,29.74,WSW,238,7.0,7.0,66,0.00,,,0.00,Wunderground v.1.15,2013-01-04 17:40:00,
2013-01-04 12:46:00,33.7,23.5,29.74,WSW,251,5.0,7.0,66,0.00,,,0.00,Wunderground v.1.15,2013-01-04 17:46:00,
2013-01-04 12:51:00,33.8,23.6,29.74,NW,319,6.0,7.0,66,0.00,,,0.00,Wunderground v.1.15,2013-01-04 17:51:00,
2013-01-04 12:57:00,33.8,23.6,29.74,West,265,6.0,8.0,66,0.00,,,0.00,Wunderground v.1.15,2013-01-04 17:57:00,
2013-01-04 13:03:00,34.0,23.8,29.74,West,260,6.0,8.0,66,0.00,,,0.00,Wunderground v.1.15,2013-01-04 18:03:00,
2013-01-04 13:09:00,34.2,24.0,29.74,WSW,237,5.0,9.0,66,0.00,,,0.00,Wunderground v.1.15,2013-01-04 18:09:00,
2013-01-04 13:15:00,34.1,23.6,29.74,West,277,6.0,13.0,65,0.00,,,0.00,Wunderground v.1.15,2013-01-04 18:15:00,
2013-01-04 13:20:00,34.1,23.9,29.74,SW,233,8.0,8.0,66,0.00,,,0.00,Wunderground v.1.15,2013-01-04 18:20:00,
2013-01-04 13:25:00,34.1,23.6,29.74,West,268,7.0,8.0,65,0.00,,,0.00,Wunderground v.1.15,2013-01-04 18:25:00,
2013-01-04 13:31:00,34.4,23.8,29.74,West,272,7.0,10.0,65,0.00,,,0.00,Wunderground v.1.15,2013-01-04 18:31:00,
2013-01-04 13:36:00,34.4,23.8,29.74,NW,307,7.0,10.0,65,0.00,,,0.00,Wunderground v.1.15,2013-01-04 18:36:00,
2013-01-04 13:42:00,35.5,24.5,29.74,WSW,246,5.0,6.0,64,0.00,,,0.00,Wunderground v.1.15,2013-01-04 18:42:00,
2013-01-04 13:47:00,35.9,24.5,29.74,WSW,244,5.0,11.0,63,0.00,,,0.00,Wunderground v.1.15,2013-01-04 18:47:00,
2013-01-04 13:52:00,36.0,24.2,29.74,West,270,6.0,6.0,62,0.00,,,0.00,Wunderground v.1.15,2013-01-04 18:52:00,
2013-01-04 13:58:00,35.7,24.3,29.74,WSW,254,6.0,10.0,63,0.00,,,0.00,Wunderground v.1.15,2013-01-04 18:58:00,
2013-01-04 14:03:00,35.9,24.5,29.74,WSW,254,6.0,12.0,63,0.00,,,0.00,Wunderground v.1.15,2013-01-04 19:03:00,
2013-01-04 14:09:00,35.7,23.9,29.74,WNW,285,6.0,12.0,62,0.00,,,0.00,Wunderground v.1.15,2013-01-04 19:09:00,
2013-01-04 14:15:00,35.4,23.7,29.74,West,263,8.0,12.0,62,0.00,,,0.00,Wunderground v.1.15,2013-01-04 19:15:00,
2013-01-04 14:20:00,35.4,23.7,29.74,West,262,7.0,11.0,62,0.00,,,0.00,Wunderground v.1.15,2013-01-04 19:20:00,
2013-01-04 14:26:00,35.6,23.9,29.74,WSW,237,7.0,11.0,62,0.00,,,0.00,Wunderground v.1.15,2013-01-04 19:26:00,
2013-01-04 14:32:00,35.9,24.1,29.74,West,267,6.0,7.0,62,0.00,,,0.00,Wunderground v.1.15,2013-01-04 19:32:00,
2013-01-04 14:37:00,36.1,24.3,29.74,WSW,243,5.0,8.0,62,0.00,,,0.00,Wunderground v.1.15,2013-01-04 19:37:00,
2013-01-04 14:43:00,36.1,24.3,29.74,SW,225,5.0,8.0,62,0.00,,,0.00,Wunderground v.1.15,2013-01-04 19:43:00,
2013-01-04 14:48:00,35.7,23.9,29.74,West,270,6.0,10.0,62,0.00,,,0.00,Wunderground v.1.15,2013-01-04 19:48:00,
2013-01-04 14:54:00,35.8,24.0,29.74,WSW,252,6.0,9.0,62,0.00,,,0.00,Wunderground v.1.15,2013-01-04 19:54:00,
2013-01-04 14:59:00,35.8,24.0,29.74,SW,225,5.0,9.0,62,0.00,,,0.00,Wunderground v.1.15,2013-01-04 19:59:00,
2013-01-04 15:05:00,35.9,24.1,29.74,WSW,246,6.0,8.0,62,0.00,,,0.00,Wunderground v.1.15,2013-01-04 20:05:00,
2013-01-04 15:11:00,35.9,24.1,29.74,West,277,6.0,7.0,62,0.00,,,0.00,Wunderground v.1.15,2013-01-04 20:11:00,
2013-01-04 15:17:00,36.0,24.2,29.74,SW,235,5.0,7.0,62,0.00,,,0.00,Wunderground v.1.15,2013-01-04 20:17:00,
2013-01-04 15:22:00,36.3,24.5,29.74,SW,226,5.0,8.0,62,0.00,,,0.00,Wunderground v.1.15,2013-01-04 20:22:00,
2013-01-04 15:27:00,36.1,24.3,29.74,WSW,238,5.0,8.0,62,0.00,,,0.00,Wunderground v.1.15,2013-01-04 20:27:00,
2013-01-04 15:33:00,35.8,24.0,29.74,WSW,249,7.0,11.0,62,0.00,,,0.00,Wunderground v.1.15,2013-01-04 20:33:00,
2013-01-04 15:39:00,36.0,24.2,29.74,SW,233,6.0,11.0,62,0.00,,,0.00,Wunderground v.1.15,2013-01-04 20:39:00,
2013-01-04 15:45:00,36.3,24.5,29.74,WSW,238,3.0,8.0,62,0.00,,,0.00,Wunderground v.1.15,2013-01-04 20:45:00,
2013-01-04 15:50:00,36.3,24.1,29.74,SW,227,3.0,5.0,61,0.00,,,0.00,Wunderground v.1.15,2013-01-04 20:50:00,
2013-01-04 15:56:00,36.3,24.1,29.74,WSW,247,5.0,5.0,61,0.00,,,0.00,Wunderground v.1.15,2013-01-04 20:56:00,
2013-01-04 16:02:00,36.2,24.0,29.74,WSW,244,4.0,6.0,61,0.00,,,0.00,Wunderground v.1.15,2013-01-04 21:02:00,
2013-01-04 16:07:00,36.1,23.9,29.74,WSW,253,3.0,6.0,61,0.00,,,0.00,Wunderground v.1.15,2013-01-04 21:07:00,
2013-01-04 16:12:00,36.0,23.8,29.74,West,268,3.0,12.0,61,0.00,,,0.00,Wunderground v.1.15,2013-01-04 21:12:00,
2013-01-04 16:18:00,35.9,24.1,29.74,SW,217,5.0,12.0,62,0.00,,,0.00,Wunderground v.1.15,2013-01-04 21:18:00,
2013-01-04 16:24:00,35.6,23.9,29.74,West,273,4.0,7.0,62,0.00,,,0.00,Wunderground v.1.15,2013-01-04 21:24:00,
2013-01-04 16:30:00,35.4,24.0,29.74,West,261,4.0,5.0,63,0.00,,,0.00,Wunderground v.1.15,2013-01-04 21:30:00,
2013-01-04 16:35:00,35.3,24.0,29.74,West,275,4.0,10.0,63,0.00,,,0.00,Wunderground v.1.15,2013-01-04 21:35:00,
2013-01-04 16:40:00,35.2,23.9,29.74,SW,231,4.0,4.0,63,0.00,,,0.00,Wunderground v.1.15,2013-01-04 21:40:00,
2013-01-04 16:46:00,34.9,23.6,29.74,WSW,237,3.0,4.0,63,0.00,,,0.00,Wunderground v.1.15,2013-01-04 21:46:00,
2013-01-04 16:51:00,34.7,23.8,29.74,West,261,2.0,4.0,64,0.00,,,0.00,Wunderground v.1.15,2013-01-04 21:51:00,
2013-01-04 16:57:00,34.5,23.6,29.74,West,261,3.0,9.0,64,0.00,,,0.00,Wunderground v.1.15,2013-01-04 21:57:00,
2013-01-04 17:02:00,34.4,23.8,29.74,West,272,3.0,4.0,65,0.00,,,0.00,Wunderground v.1.15,2013-01-04 22:02:00,
2013-01-04 17:07:00,34.4,23.8,29.74,SW,232,3.0,5.0,65,0.00,,,0.00,Wunderground v.1.15,2013-01-04 22:07:00,
2013-01-04 17:12:00,34.4,23.8,29.74,West,261,2.0,2.0,65,0.00,,,0.00,Wunderground v.1.15,2013-01-04 22:12:00,
2013-01-04 17:18:00,34.2,23.7,29.74,SW,231,1.0,6.0,65,0.00,,,0.00,Wunderground v.1.15,2013-01-04 22:18:00,
2013-01-04 17:24:00,34.1,23.6,29.74,West,272,1.0,4.0,65,0.00,,,0.00,Wunderground v.1.15,2013-01-04 22:24:00,
2013-01-04 17:29:00,34.1,23.6,29.74,SW,220,1.0,4.0,65,0.00,,,0.00,Wunderground v.1.15,2013-01-04 22:29:00,
2013-01-04 17:34:00,34.0,23.5,29.74,SW,234,2.0,5.0,65,0.00,,,0.00,Wunderground v.1.15,2013-01-04 22:34:00,
2013-01-04 17:40:00,34.0,23.5,29.74,West,265,2.0,2.0,65,0.00,,,0.00,Wunderground v.1.15,2013-01-04 22:40:00,
2013-01-04 17:46:00,34.0,23.5,29.74,West,274,1.0,6.0,65,0.00,,,0.00,Wunderground v.1.15,2013-01-04 22:46:00,
2013-01-04 17:51:00,34.2,23.7,29.74,West,281,2.0,3.0,65,0.00,,,0.00,Wunderground v.1.15,2013-01-04 22:51:00,
2013-01-04 17:57:00,34.3,23.7,29.74,West,261,3.0,5.0,65,0.00,,,0.00,Wunderground v.1.15,2013-01-04 22:57:00,
2013-01-04 18:02:00,34.3,23.7,29.74,WSW,250,3.0,5.0,65,0.00,,,0.00,Wunderground v.1.15,2013-01-04 23:02:00,
2013-01-04 18:08:00,34.1,23.6,29.74,SW,232,2.0,5.0,65,0.00,,,0.00,Wunderground v.1.15,2013-01-04 23:08:00,
2013-01-04 18:14:00,34.0,23.5,29.74,West,267,2.0,2.0,65,0.00,,,0.00,Wunderground v.1.15,2013-01-04 23:14:00,
2013-01-04 18:19:00,33.9,23.4,29.74,WSW,238,2.0,7.0,65,0.00,,,0.00,Wunderground v.1.15,2013-01-04 23:19:00,
2013-01-04 18:25:00,34.0,23.5,29.74,West,264,2.0,5.0,65,0.00,,,0.00,Wunderground v.1.15,2013-01-04 23:25:00,
2013-01-04 18:31:00,34.0,23.5,29.74,SW,236,2.0,5.0,65,0.00,,,0.00,Wunderground v.1.15,2013-01-04 23:31:00,
2013-01-04 18:36:00,34.0,23.5,29.74,West,273,2.0,7.0,65,0.00,,,0.00,Wunderground v.1.15,2013-01-04 23:36:00,
2013-01-04 18:42:00,33.8,23.6,29.74,WSW,253,2.0,5.0,66,0.00,,,0.00,Wunderground v.1.15,2013-01-04 23:42:00,